Regional Weather Roundup
Issued by NWS

Home | Current Version | Previous Version | Graphics & Text | Print | Product List | Glossary On
Versions: 1 2 3 4 5 6 7 8 9 10 11 12 13 14 15 16 17 18 19 20 21 22 23 24 25 26 27 28 29 30 31 32 33 34 35 36 37 38 39 40 41 42 43 44 45 46 47 48 49 50
000
ASUS44 KMEG 221410
RWRTN
TENNESSEE HOURLY STATE WEATHER ROUNDUP
NATIONAL WEATHER SERVICE MEMPHIS TN
900 AM CDT TUE APR 22 2014

TNZ002-004-019-021-049-052-054-088>092-221500-
WEST TENNESSEE

CITY           SKY/WX    TMP DP  RH WIND       PRES   REMARKS
MEMPHIS INTL   CLOUDY    64  61  88 NW9       29.95R
NWS MEMPHIS      N/A     65 N/A N/A MISG        N/A
JACKSON        CLOUDY    63  61  93 NW6       29.93R FOG
DYERSBURG      CLOUDY    63  54  72 N10       29.95R
UNION CITY     CLOUDY    63  59  88 N13       29.92S
PARIS          CLOUDY    61  58  90 N8        29.92
LEXINGTON      CLOUDY    63  61  94 W5        29.91S
SILERTON         N/A     63  62  96 W3          N/A
SAVANNAH       CLOUDY    64  64 100 CALM      29.92F
$$

TNZ008-025-027-028-033-062-065-066-221500-
NORTH MIDDLE TENNESSEE

CITY           SKY/WX    TMP DP  RH WIND       PRES   REMARKS
NASHVILLE      CLOUDY    64  61  90 W5        29.89S
DICKSON          N/A     61  61 100 W6        29.90S
PORTLAND         N/A     61  59  94 W3        29.88S
CLARKSVILLE    CLOUDY    66  61  84 NW9       29.89S
SMYRNA         CLOUDY    65  61  87 W5        29.91R
MURFREESBORO   CLOUDY    63  61  93 SW6       29.89F
COOKEVILLE     CLOUDY    61  61 100 SW3       29.90R
GALLATIN       CLOUDY    65  61  87 W3        29.89S
CROSSVILLE     CLOUDY    59  57  93 VRB3      29.91F FOG
$$

TNZ061-075-076-078-094-096-097-221500-
SOUTH MIDDLE TENNESSEE

CITY           SKY/WX    TMP DP  RH WIND       PRES   REMARKS
LEWISBURG      CLOUDY    65  61  87 SW6       29.91S
FAYETTEVILLE   CLOUDY    61  60  96 W3        29.92S
TULLAHOMA      CLOUDY    63  59  88 W5        29.93S
WINCHESTER     CLOUDY    63  61  94 W5        29.93R
MCMINNVILLE    PTSUNNY   61  61 100 SW6       29.91S
COLUMBIA       PTSUNNY   64  64 100 SW7       29.90S
SHELBYVILLE    CLOUDY    63  63 100 SW6       29.92F
$$

TNZ017-018-042-046-047-221500-
NORTHEAST TENNESSEE

CITY           SKY/WX    TMP DP  RH WIND       PRES   REMARKS
TRI CITIES     CLOUDY    63  49  60 SW6       29.88R
ELIZABETHTON   CLOUDY    63  50  63 CALM      29.87S
$$

TNZ012-013-036-069-073-074-221500-
CENTRAL EAST TENNESSEE

CITY           SKY/WX    TMP DP  RH WIND       PRES   REMARKS
KNOXVILLE      LGT RAIN  59  57  93 SW12      29.89S FOG
OAK RIDGE      CLOUDY    63  58  83 S6        29.89S
$$

TNZ083-085-099-221500-
SOUTHEAST TENNESSEE

CITY           SKY/WX    TMP DP  RH WIND       PRES   REMARKS
CHATTANOOGA    CLOUDY    64  60  87 CALM      29.91S
$$

SKY/WX REPORTED AS FAIR MEANS FEW OR NO CLOUDS BELOW
12 THOUSAND FEET.




USA.gov is the U.S. government's official web portal to all federal, state and local government web resources and services.